N5TM-4 Weather Reports


Display with metric or nautical units.
time (UTC)temp
F
wind
direction
speed
MPH
gust
MPH
rain 1hr
in
rain 24hr
in
rain mn
in
humidity
%
barometer
mb
20260505014550 74 156 6.0 12.0 0.00 0.00 0.00 73 1010.9
20260505014049 74 190 5.0 17.0 0.00 0.00 0.00 73 1010.9
20260505013549 74 174 9.0 18.0 0.00 0.00 0.00 73 1010.8
20260505013050 74 103 6.0 15.0 0.00 0.00 0.00 73 1010.7
20260505012549 74 167 9.0 17.0 0.00 0.00 0.00 72 1010.6
20260505012053 74 187 6.0 12.0 0.00 0.00 0.00 72 1010.7
20260505011553 74 157 3.0 13.0 0.00 0.00 0.00 72 1010.7
20260505011052 74 157 6.0 13.0 0.00 0.00 0.00 72 1010.5
20260505010548 74 160 4.0 12.0 0.00 0.00 0.00 72 1010.7
20260505010050 74 169 4.0 14.0 0.00 0.00 0.00 72 1010.7
20260505005548 74 187 7.0 14.0 0.00 0.00 0.00 71 1010.6
20260505005048 75 163 6.0 14.0 0.00 0.00 0.00 71 1010.6
20260505004548 75 175 4.0 10.0 0.00 0.00 0.00 71 1010.6
20260505004048 75 176 5.0 10.0 0.00 0.00 0.00 71 1010.6
20260505003547 75 190 5.0 10.0 0.00 0.00 0.00 71 1010.5
20260505003048 75 138 4.0 12.0 0.00 0.00 0.00 71 1010.5
20260505002548 75 169 4.0 12.0 0.00 0.00 0.00 71 1010.5
20260505002048 75 142 5.0 12.0 0.00 0.00 0.00 70 1010.4
20260505001547 75 123 5.0 13.0 0.00 0.00 0.00 69 1010.4
20260505001046 76 169 7.0 13.0 0.00 0.00 0.00 69 1010.4
20260505000546 76 157 6.0 15.0 0.00 0.00 0.00 69 1010.4
20260505000049 76 157 4.0 17.0 0.00 0.00 0.00 69 1010.5
20260504235546 76 134 7.0 17.0 0.00 0.00 0.00 68 1010.6
20260504235045 76 180 2.0 11.0 0.00 0.00 0.00 69 1010.5
20260504234546 76 174 5.0 11.0 0.00 0.00 0.00 68 1010.7
20260504234045 77 153 3.0 11.0 0.00 0.00 0.00 68 1010.7
20260504233543 77 174 3.0 15.0 0.00 0.00 0.00 68 1010.8
20260504233044 77 174 7.0 15.0 0.00 0.00 0.00 67 1010.9
20260504232543 77 178 4.0 14.0 0.00 0.00 0.00 67 1010.9
20260504232042 77 138 6.0 14.0 0.00 0.00 0.00 67 1011.0
20260504231543 77 131 4.0 10.0 0.00 0.00 0.00 67 1011.0
20260504231042 77 134 4.0 10.0 0.00 0.00 0.00 67 1010.9
20260504230544 77 169 6.0 12.0 0.00 0.00 0.00 66 1011.0
20260504230042 77 152 4.0 12.0 0.00 0.00 0.00 66 1011.1
20260504225540 78 146 7.0 13.0 0.00 0.00 0.00 66 1011.1
20260504225043 78 134 5.0 12.0 0.00 0.00 0.00 66 1011.2
20260504224542 78 133 6.0 14.0 0.00 0.00 0.00 65 1011.2
20260504224042 78 123 6.0 14.0 0.00 0.00 0.00 64 1011.2
20260504223541 78 144 2.0 12.0 0.00 0.00 0.00 64 1011.1
20260504223039 78 148 5.0 12.0 0.00 0.00 0.00 64 1011.3
20260504222538 79 140 5.0 13.0 0.00 0.00 0.00 63 1011.2
20260504222039 79 219 2.0 11.0 0.00 0.00 0.00 63 1011.4
20260504221538 78 168 6.0 11.0 0.00 0.00 0.00 63 1011.4
20260504221036 79 121 5.0 11.0 0.00 0.00 0.00 62 1011.5
20260504220535 79 163 3.0 9.0 0.00 0.00 0.00 62 1011.7
20260504220034 79 115 3.0 12.0 0.00 0.00 0.00 62 1011.7
20260504215535 79 148 6.0 12.0 0.00 0.00 0.00 61 1011.9
20260504215034 79 179 5.0 11.0 0.00 0.00 0.00 60 1011.8
20260504214542 79 161 4.0 11.0 0.00 0.00 0.00 60 1011.8
20260504214033 79 151 5.0 16.0 0.00 0.00 0.00 60 1011.8
20260504213533 79 167 5.0 16.0 0.00 0.00 0.00 59 1012.0
20260504213034 80 175 5.0 16.0 0.00 0.00 0.00 58 1011.9
20260504212532 81 177 4.0 10.0 0.00 0.00 0.00 57 1012.0
20260504212032 81 163 5.0 11.0 0.00 0.00 0.00 57 1011.9
20260504211531 80 148 6.0 14.0 0.00 0.00 0.00 57 1012.1
20260504211031 80 211 5.0 14.0 0.00 0.00 0.00 57 1012.0
20260504210530 81 221 7.0 12.0 0.00 0.00 0.00 56 1012.1
20260504210030 82 141 3.0 9.0 0.00 0.00 0.00 55 1012.2
20260504205529 82 170 5.0 10.0 0.00 0.00 0.00 54 1012.2
20260504205028 81 179 4.0 10.0 0.00 0.00 0.00 56 1012.4
20260504204529 82 185 4.0 9.0 0.00 0.00 0.00 55 1012.5
20260504204028 82 139 3.0 7.0 0.00 0.00 0.00 54 1012.5
20260504203528 82 155 1.0 9.0 0.00 0.00 0.00 54 1012.5
20260504203027 81 171 3.0 10.0 0.00 0.00 0.00 54 1012.4
20260504202527 81 188 4.0 11.0 0.00 0.00 0.00 55 1012.6
20260504202025 81 158 4.0 10.0 0.00 0.00 0.00 55 1012.7
20260504201524 81 186 5.0 12.0 0.00 0.00 0.00 54 1012.8
20260504201024 81 163 7.0 12.0 0.00 0.00 0.00 53 1012.9
20260504200523 82 125 4.0 8.0 0.00 0.00 0.00 54 1012.9
20260504200035 82 155 1.0 9.0 0.00 0.00 0.00 55 1013.1
20260504195522 82 152 5.0 11.0 0.00 0.00 0.00 52 1013.1
20260504195021 82 132 6.0 11.0 0.00 0.00 0.00 52 1013.2
20260504194522 82 182 4.0 10.0 0.00 0.00 0.00 51 1013.2
20260504194023 83 160 2.0 9.0 0.00 0.00 0.00 51 1013.2
20260504193519 83 182 4.0 9.0 0.00 0.00 0.00 51 1013.4
20260504193019 84 155 3.0 9.0 0.00 0.00 0.00 50 1013.4
20260504192517 84 159 2.0 9.0 0.00 0.00 0.00 51 1013.5
20260504192017 83 192 3.0 11.0 0.00 0.00 0.00 51 1013.4
20260504191527 81 173 5.0 11.0 0.00 0.00 0.00 53 1013.6
20260504191016 82 189 3.0 14.0 0.00 0.00 0.00 53 1013.6
20260504190516 83 227 6.0 14.0 0.00 0.00 0.00 51 1013.6
20260504190016 82 222 3.0 7.0 0.00 0.00 0.00 51 1013.7
20260504185515 82 207 1.0 10.0 0.00 0.00 0.00 52 1013.7
20260504185014 81 186 3.0 10.0 0.00 0.00 0.00 54 1013.9
20260504184515 81 196 4.0 11.0 0.00 0.00 0.00 53 1014.0
20260504184015 81 198 1.0 13.0 0.00 0.00 0.00 54 1014.0
20260504183513 81 171 7.0 13.0 0.00 0.00 0.00 52 1014.0
20260504183032 81 153 6.0 12.0 0.00 0.00 0.00 53 1014.0
20260504182512 81 186 7.0 12.0 0.00 0.00 0.00 52 1014.1
20260504182011 82 196 6.0 12.0 0.00 0.00 0.00 51 1014.0
20260504181522 81 155 3.0 14.0 0.00 0.00 0.00 52 1014.2
20260504181011 83 178 6.0 14.0 0.00 0.00 0.00 49 1014.3
20260504180515 83 203 4.0 15.0 0.00 0.00 0.00 49 1014.3
20260504180010 82 181 5.0 15.0 0.00 0.00 0.00 49 1014.3
20260504175508 83 256 2.0 11.0 0.00 0.00 0.00 50 1014.5
20260504175007 82 190 4.0 11.0 0.00 0.00 0.00 51 1014.7
20260504174507 82 183 2.0 10.0 0.00 0.00 0.00 51 1014.7
20260504174006 82 338 3.0 10.0 0.00 0.00 0.00 53 1014.8
20260504173506 81 187 6.0 11.0 0.00 0.00 0.00 54 1014.9
20260504173004 80 161 3.0 13.0 0.00 0.00 0.00 55 1014.8
20260504172504 80 178 5.0 13.0 0.00 0.00 0.00 56 1014.8
20260504172002 80 195 3.0 14.0 0.00 0.00 0.00 55 1015.1
20260504171501 79 169 5.0 10.0 0.00 0.00 0.00 55 1015.2
20260504171003 80 223 2.0 10.0 0.00 0.00 0.00 54 1015.3
20260504170601 80 174 3.0 11.0 0.00 0.00 0.00 53 1015.2
20260504170109 80 147 4.0 15.0 0.00 0.00 0.00 53 1015.3
20260504151049 77 161 5.0 10.0 0.00 0.00 0.00 58 1016.0
20260504150549 77 167 2.0 12.0 0.00 0.00 0.00 59 1016.1
20260504141040 73 156 2.0 6.0 0.00 0.00 0.00 63 1016.1
20260504140539 72 181 3.0 5.0 0.00 0.00 0.00 63 1016.2
20260504130523 64 150 1.0 3.0 0.00 0.00 0.00 75 1016.1
20260504110514 58 180 0.0 0.0 0.00 0.00 0.00 83 1015.7
20260504100509 58 180 0.0 1.0 0.00 0.00 0.00 82 1016.0
20260504081601 59 180 0.0 2.0 0.00 0.00 0.00 77 1016.6
20260504081101 59 180 0.0 3.0 0.00 0.00 0.00 78 1016.5
20260504080559 59 180 1.0 3.0 0.00 0.00 0.00 78 1016.7
20260504050531 62 163 0.0 2.0 0.00 0.00 0.00 69 1018.8
20260504045531 62 163 0.0 1.0 0.00 0.00 0.00 69 1018.7
20260504045029 63 163 0.0 1.0 0.00 0.00 0.00 69 1018.6
20260504044537 63 163 0.0 0.0 0.00 0.00 0.00 68 1018.7
20260504044034 63 163 0.0 0.0 0.00 0.00 0.00 69 1018.7
20260504043529 63 163 0.0 0.0 0.00 0.00 0.00 68 1018.7
20260504043029 63 163 0.0 0.0 0.00 0.00 0.00 67 1018.8
20260504042528 64 163 0.0 0.0 0.00 0.00 0.00 66 1018.8
20260504042028 64 163 0.0 0.0 0.00 0.00 0.00 66 1018.8
20260504041528 64 163 0.0 0.0 0.00 0.00 0.00 65 1018.9
20260504041028 64 163 0.0 0.0 0.00 0.00 0.00 65 1018.9
20260504040528 64 163 0.0 0.0 0.00 0.00 0.00 65 1018.8
20260504040028 64 163 0.0 1.0 0.00 0.00 0.00 64 1018.7
20260504035531 64 163 0.0 3.0 0.00 0.00 0.00 64 1018.8
20260504035029 65 163 1.0 3.0 0.00 0.00 0.00 64 1018.7
20260504034544 65 163 0.0 3.0 0.00 0.00 0.00 63 1018.7
20260504034028 65 163 1.0 3.0 0.00 0.00 0.00 62 1018.7
20260504033527 65 163 1.0 5.0 0.00 0.00 0.00 62 1018.8
20260504033027 66 163 2.0 5.0 0.00 0.00 0.00 61 1018.9
20260504032527 66 163 1.0 5.0 0.00 0.00 0.00 61 1018.8
20260504032028 66 162 1.0 4.0 0.00 0.00 0.00 60 1018.8
20260504031527 66 162 1.0 3.0 0.00 0.00 0.00 60 1018.7
20260504031026 66 158 1.0 6.0 0.00 0.00 0.00 59 1018.7
20260504030527 67 164 2.0 6.0 0.00 0.00 0.00 59 1018.6
20260504030039 67 138 1.0 5.0 0.00 0.00 0.00 59 1018.7
20260504025529 67 187 2.0 5.0 0.00 0.00 0.00 58 1018.6
20260504025027 67 175 2.0 6.0 0.00 0.00 0.00 58 1018.5
20260504024526 67 171 1.0 8.0 0.00 0.00 0.00 57 1018.5
20260504024026 67 167 2.0 8.0 0.00 0.00 0.00 56 1018.5
20260504023526 68 162 3.0 7.0 0.00 0.00 0.00 56 1018.5
20260504023027 68 151 2.0 6.0 0.00 0.00 0.00 56 1018.5
20260504022526 68 179 2.0 6.0 0.00 0.00 0.00 55 1018.4
20260504022026 68 180 1.0 5.0 0.00 0.00 0.00 54 1018.5
20260504021526 69 140 1.0 6.0 0.00 0.00 0.00 54 1018.2
20260504021025 69 162 3.0 8.0 0.00 0.00 0.00 53 1018.2
20260504020525 69 105 4.0 8.0 0.00 0.00 0.00 53 1018.2
20260504020027 69 128 3.0 8.0 0.00 0.00 0.00 52 1018.1
20260504015525 69 165 4.0 8.0 0.00 0.00 0.00 51 1018.1
20260504015025 70 167 4.0 9.0 0.00 0.00 0.00 51 1018.2